Year,Month,Day,Hour,Minute,Value (Times are PST for temperature in C)
2010,03,24,00,00,4.80
2010,03,24,00,01,4.80
2010,03,24,00,02,4.80
2010,03,24,00,03,4.80
2010,03,24,00,04,4.80
2010,03,24,00,05,4.80
2010,03,24,00,06,4.70
2010,03,24,00,07,4.70
2010,03,24,00,08,4.80
2010,03,24,00,09,4.80
2010,03,24,00,10,4.90
2010,03,24,00,11,4.90
2010,03,24,00,12,4.90
2010,03,24,00,13,5.00
2010,03,24,00,14,5.10
2010,03,24,00,15,5.20
2010,03,24,00,16,5.20
2010,03,24,00,17,5.20
2010,03,24,00,18,5.30
2010,03,24,00,19,5.30
2010,03,24,00,20,5.40
2010,03,24,00,21,5.40
2010,03,24,00,22,5.50
2010,03,24,00,23,5.50
2010,03,24,00,24,5.50
2010,03,24,00,25,5.40
2010,03,24,00,26,5.40
2010,03,24,00,27,5.40
2010,03,24,00,28,5.30
2010,03,24,00,29,5.30
2010,03,24,00,30,5.30
2010,03,24,00,31,5.40
2010,03,24,00,32,5.40
2010,03,24,00,33,5.50
2010,03,24,00,34,5.50
2010,03,24,00,35,5.60
2010,03,24,00,36,5.60
2010,03,24,00,37,5.60
2010,03,24,00,38,5.60
2010,03,24,00,39,5.60
2010,03,24,00,40,5.60
2010,03,24,00,41,5.60
2010,03,24,00,42,5.60
2010,03,24,00,43,5.60
2010,03,24,00,44,5.70
2010,03,24,00,45,5.70
2010,03,24,00,46,5.70
2010,03,24,00,47,5.80
2010,03,24,00,48,5.80
2010,03,24,00,49,5.80
2010,03,24,00,50,5.80
2010,03,24,00,51,5.80
2010,03,24,00,52,5.90
2010,03,24,00,53,5.90
2010,03,24,00,54,5.90
2010,03,24,00,55,5.90
2010,03,24,00,56,6.00
2010,03,24,00,57,6.00
2010,03,24,00,58,6.10
2010,03,24,00,59,6.10
2010,03,24,01,00,6.10
2010,03,24,01,01,6.10
2010,03,24,01,02,6.10
2010,03,24,01,03,6.10
2010,03,24,01,04,6.10
2010,03,24,01,05,6.20
2010,03,24,01,06,6.20
2010,03,24,01,07,6.20
2010,03,24,01,08,6.10
2010,03,24,01,09,6.10
2010,03,24,01,10,6.00
2010,03,24,01,11,5.90
2010,03,24,01,12,5.90
2010,03,24,01,13,5.80
2010,03,24,01,14,5.70
2010,03,24,01,15,5.70
2010,03,24,01,16,5.60
2010,03,24,01,17,5.50
2010,03,24,01,18,5.50
2010,03,24,01,19,5.40
2010,03,24,01,20,5.40
2010,03,24,01,21,5.40
2010,03,24,01,22,5.40
2010,03,24,01,23,5.30
2010,03,24,01,24,5.30
2010,03,24,01,25,5.20
2010,03,24,01,26,5.20
2010,03,24,01,27,5.20
2010,03,24,01,28,5.20
2010,03,24,01,29,5.10
2010,03,24,01,30,5.10
2010,03,24,01,31,5.10
2010,03,24,01,32,5.10
2010,03,24,01,33,5.10
2010,03,24,01,34,5.20
2010,03,24,01,35,5.20
2010,03,24,01,36,5.20
2010,03,24,01,37,5.10
2010,03,24,01,38,5.10
2010,03,24,01,39,5.10
2010,03,24,01,40,5.10
2010,03,24,01,41,5.00
2010,03,24,01,42,4.90
2010,03,24,01,43,4.90
2010,03,24,01,44,4.90
2010,03,24,01,45,4.90
2010,03,24,01,46,4.80
2010,03,24,01,47,4.80
2010,03,24,01,48,4.80
2010,03,24,01,49,4.80
2010,03,24,01,50,4.80
2010,03,24,01,51,4.80
2010,03,24,01,52,4.70
2010,03,24,01,53,4.70
2010,03,24,01,54,4.70
2010,03,24,01,55,4.70
2010,03,24,01,56,4.70
2010,03,24,01,57,4.70
2010,03,24,01,58,4.70
2010,03,24,01,59,4.60
2010,03,24,02,00,4.60
2010,03,24,02,01,4.60
2010,03,24,02,02,4.60
2010,03,24,02,03,4.60
2010,03,24,02,04,4.70
2010,03,24,02,05,4.80
2010,03,24,02,06,4.80
2010,03,24,02,07,4.90
2010,03,24,02,08,5.00
2010,03,24,02,09,5.00
2010,03,24,02,10,5.10
2010,03,24,02,11,5.10
2010,03,24,02,12,5.00
2010,03,24,02,13,5.00
2010,03,24,02,14,5.00
2010,03,24,02,15,4.90
2010,03,24,02,16,4.90
2010,03,24,02,17,4.90
2010,03,24,02,18,4.80
2010,03,24,02,19,4.80
2010,03,24,02,20,4.70
2010,03,24,02,21,4.70
2010,03,24,02,22,4.70
2010,03,24,02,23,4.70
2010,03,24,02,24,4.70
2010,03,24,02,25,4.60
2010,03,24,02,26,4.60
2010,03,24,02,27,4.60
2010,03,24,02,28,4.60
2010,03,24,02,29,4.60
2010,03,24,02,30,4.60
2010,03,24,02,31,4.50
2010,03,24,02,32,4.50
2010,03,24,02,33,4.50
2010,03,24,02,34,4.50
2010,03,24,02,35,4.40
2010,03,24,02,36,4.40
2010,03,24,02,37,4.40
2010,03,24,02,38,4.40
2010,03,24,02,39,4.40
2010,03,24,02,40,4.40
2010,03,24,02,41,4.40
2010,03,24,02,42,4.40
2010,03,24,02,43,4.40
2010,03,24,02,44,4.40
2010,03,24,02,45,4.40
2010,03,24,02,46,4.40
2010,03,24,02,47,4.40
2010,03,24,02,48,4.30
2010,03,24,02,49,4.30
2010,03,24,02,50,4.30
2010,03,24,02,51,4.30
2010,03,24,02,52,4.30
2010,03,24,02,53,4.20
2010,03,24,02,54,4.20
2010,03,24,02,55,4.20
2010,03,24,02,56,4.20
2010,03,24,02,57,4.20
2010,03,24,02,58,4.20
2010,03,24,02,59,4.20
2010,03,24,03,00,4.20
2010,03,24,03,01,4.20
2010,03,24,03,02,4.20
2010,03,24,03,03,4.20
2010,03,24,03,04,4.20
2010,03,24,03,05,4.20
2010,03,24,03,06,4.20
2010,03,24,03,07,4.20
2010,03,24,03,08,4.20
2010,03,24,03,09,4.20
2010,03,24,03,10,4.20
2010,03,24,03,11,4.20
2010,03,24,03,12,4.20
2010,03,24,03,13,4.20
2010,03,24,03,14,4.20
2010,03,24,03,15,4.20
2010,03,24,03,16,4.20
2010,03,24,03,17,4.20
2010,03,24,03,18,4.20
2010,03,24,03,19,4.20
2010,03,24,03,20,4.20
2010,03,24,03,21,4.20
2010,03,24,03,22,4.10
2010,03,24,03,23,4.10
2010,03,24,03,24,4.10
2010,03,24,03,25,4.10
2010,03,24,03,26,4.10
2010,03,24,03,27,4.10
2010,03,24,03,28,4.00
2010,03,24,03,29,4.00
2010,03,24,03,30,4.00
2010,03,24,03,31,4.00
2010,03,24,03,32,4.00
2010,03,24,03,33,4.10
2010,03,24,03,34,4.10
2010,03,24,03,35,4.10
2010,03,24,03,36,4.20
2010,03,24,03,37,4.20
2010,03,24,03,38,4.30
2010,03,24,03,39,4.30
2010,03,24,03,40,4.40
2010,03,24,03,41,4.40
2010,03,24,03,42,4.40
2010,03,24,03,43,4.40
2010,03,24,03,44,4.50
2010,03,24,03,45,4.50
2010,03,24,03,46,4.50
2010,03,24,03,47,4.50
2010,03,24,03,48,4.40
2010,03,24,03,49,4.40
2010,03,24,03,50,4.30
2010,03,24,03,51,4.20
2010,03,24,03,52,4.20
2010,03,24,03,53,4.10
2010,03,24,03,54,4.10
2010,03,24,03,55,4.00
2010,03,24,03,56,4.00
2010,03,24,03,57,3.90
2010,03,24,03,58,4.00
2010,03,24,03,59,3.90
2010,03,24,04,00,3.90
2010,03,24,04,01,3.90
2010,03,24,04,02,3.90
2010,03,24,04,03,3.90
2010,03,24,04,04,3.90
2010,03,24,04,05,3.80
2010,03,24,04,06,3.80
2010,03,24,04,07,3.80
2010,03,24,04,08,3.80
2010,03,24,04,09,3.70
2010,03,24,04,10,3.70
2010,03,24,04,11,3.70
2010,03,24,04,12,3.60
2010,03,24,04,13,3.60
2010,03,24,04,14,3.60
2010,03,24,04,15,3.60
2010,03,24,04,16,3.70
2010,03,24,04,17,3.70
2010,03,24,04,18,3.70
2010,03,24,04,19,3.70
2010,03,24,04,20,3.70
2010,03,24,04,21,3.70
2010,03,24,04,22,3.70
2010,03,24,04,23,3.70
2010,03,24,04,24,3.60
2010,03,24,04,25,3.60
2010,03,24,04,26,3.50
2010,03,24,04,27,3.50
2010,03,24,04,28,3.40
2010,03,24,04,29,3.40
2010,03,24,04,30,3.30
2010,03,24,04,31,3.30
2010,03,24,04,32,3.30
2010,03,24,04,33,3.30
2010,03,24,04,34,3.40
2010,03,24,04,35,3.40
2010,03,24,04,36,3.50
2010,03,24,04,37,3.60
2010,03,24,04,38,3.60
2010,03,24,04,39,3.60
2010,03,24,04,40,3.60
2010,03,24,04,41,3.60
2010,03,24,04,42,3.60
2010,03,24,04,43,3.60
2010,03,24,04,44,3.50
2010,03,24,04,45,3.50
2010,03,24,04,46,3.50
2010,03,24,04,47,3.50
2010,03,24,04,48,3.50
2010,03,24,04,49,3.50
2010,03,24,04,50,3.50
2010,03,24,04,51,3.50
2010,03,24,04,52,3.50
2010,03,24,04,53,3.40
2010,03,24,04,54,3.40
2010,03,24,04,55,3.30
2010,03,24,04,56,3.30
2010,03,24,04,57,3.30
2010,03,24,04,58,3.30
2010,03,24,04,59,3.30
2010,03,24,05,00,3.20
2010,03,24,05,01,3.30
2010,03,24,05,02,3.30
2010,03,24,05,03,3.30
2010,03,24,05,04,3.30
2010,03,24,05,05,3.30
2010,03,24,05,06,3.40
2010,03,24,05,07,3.40
2010,03,24,05,08,3.40
2010,03,24,05,09,3.40
2010,03,24,05,10,3.40
2010,03,24,05,11,3.40
2010,03,24,05,12,3.40
2010,03,24,05,13,3.30
2010,03,24,05,14,3.30
2010,03,24,05,15,3.30
2010,03,24,05,16,3.20
2010,03,24,05,17,3.20
2010,03,24,05,18,3.20
2010,03,24,05,19,3.20
2010,03,24,05,20,3.20
2010,03,24,05,21,3.20
2010,03,24,05,22,3.20
2010,03,24,05,23,3.20
2010,03,24,05,24,3.20
2010,03,24,05,25,3.20
2010,03,24,05,26,3.20
2010,03,24,05,27,3.20
2010,03,24,05,28,3.20
2010,03,24,05,29,3.20
2010,03,24,05,30,3.30
2010,03,24,05,31,3.30
2010,03,24,05,32,3.30
2010,03,24,05,33,3.30
2010,03,24,05,34,3.30
2010,03,24,05,35,3.30
2010,03,24,05,36,3.30
2010,03,24,05,37,3.30
2010,03,24,05,38,3.30
2010,03,24,05,39,3.20
2010,03,24,05,40,3.20
2010,03,24,05,41,3.20
2010,03,24,05,42,3.10
2010,03,24,05,43,3.10
2010,03,24,05,44,3.10
2010,03,24,05,45,3.10
2010,03,24,05,46,3.10
2010,03,24,05,47,3.10
2010,03,24,05,48,3.10
2010,03,24,05,49,3.10
2010,03,24,05,50,3.10
2010,03,24,05,51,3.10
2010,03,24,05,52,3.10
2010,03,24,05,53,3.10
2010,03,24,05,54,3.10
2010,03,24,05,55,3.10
2010,03,24,05,56,3.10
2010,03,24,05,57,3.10
2010,03,24,05,58,3.10
2010,03,24,05,59,3.10
2010,03,24,06,00,3.10
2010,03,24,06,01,3.10
2010,03,24,06,02,3.10
2010,03,24,06,03,3.20
2010,03,24,06,04,3.20
2010,03,24,06,05,3.30
2010,03,24,06,06,3.30
2010,03,24,06,07,3.40
2010,03,24,06,08,3.50
2010,03,24,06,09,3.50
2010,03,24,06,10,3.50
2010,03,24,06,11,3.60
2010,03,24,06,12,3.60
2010,03,24,06,13,3.50
2010,03,24,06,14,3.50
2010,03,24,06,15,3.50
2010,03,24,06,16,3.40
2010,03,24,06,17,3.40
2010,03,24,06,18,3.40
2010,03,24,06,19,3.40
2010,03,24,06,20,3.30
2010,03,24,06,21,3.20
2010,03,24,06,22,3.20
2010,03,24,06,23,3.10
2010,03,24,06,24,3.10
2010,03,24,06,25,3.00
2010,03,24,06,26,3.00
2010,03,24,06,27,3.10
2010,03,24,06,28,3.10
2010,03,24,06,29,3.10
2010,03,24,06,30,3.10
2010,03,24,06,31,3.10
2010,03,24,06,32,3.10
2010,03,24,06,33,3.10
2010,03,24,06,34,3.00
2010,03,24,06,35,3.00
2010,03,24,06,36,3.00
2010,03,24,06,37,3.00
2010,03,24,06,38,3.10
2010,03,24,06,39,3.10
2010,03,24,06,40,3.20
2010,03,24,06,41,3.20
2010,03,24,06,42,3.20
2010,03,24,06,43,3.20
2010,03,24,06,44,3.10
2010,03,24,06,45,3.00
2010,03,24,06,46,3.00
2010,03,24,06,47,3.00
2010,03,24,06,48,3.00
2010,03,24,06,49,3.00
2010,03,24,06,50,3.00
2010,03,24,06,51,3.00
2010,03,24,06,52,2.90
2010,03,24,06,53,2.90
2010,03,24,06,54,2.80
2010,03,24,06,55,2.80
2010,03,24,06,56,2.80
2010,03,24,06,57,2.70
2010,03,24,06,58,2.70
2010,03,24,06,59,2.70
2010,03,24,07,00,2.70
2010,03,24,07,01,2.60
2010,03,24,07,02,2.70
2010,03,24,07,03,2.70
2010,03,24,07,04,2.70
2010,03,24,07,05,2.70
2010,03,24,07,06,2.80
2010,03,24,07,07,2.90
2010,03,24,07,08,2.90
2010,03,24,07,09,3.00
2010,03,24,07,10,3.00
2010,03,24,07,11,3.00
2010,03,24,07,12,3.00
2010,03,24,07,13,3.00
2010,03,24,07,14,3.00
2010,03,24,07,15,2.90
2010,03,24,07,16,2.90
2010,03,24,07,17,2.90
2010,03,24,07,18,2.90
2010,03,24,07,19,2.90
2010,03,24,07,20,2.80
2010,03,24,07,21,2.80
2010,03,24,07,22,2.80
2010,03,24,07,23,2.80
2010,03,24,07,24,2.80
2010,03,24,07,25,2.80
2010,03,24,07,26,2.80
2010,03,24,07,27,2.80
2010,03,24,07,28,2.80
2010,03,24,07,29,2.80
2010,03,24,07,30,2.80
2010,03,24,07,31,2.80
2010,03,24,07,32,2.80
2010,03,24,07,33,2.80
2010,03,24,07,34,2.80
2010,03,24,07,35,2.80
2010,03,24,07,36,2.80
2010,03,24,07,37,2.80
2010,03,24,07,38,2.80
2010,03,24,07,39,2.80
2010,03,24,07,40,2.80
2010,03,24,07,41,2.80
2010,03,24,07,42,2.80
2010,03,24,07,43,2.80
2010,03,24,07,44,2.90
2010,03,24,07,45,2.90
2010,03,24,07,46,2.90
2010,03,24,07,47,2.90
2010,03,24,07,48,3.00
2010,03,24,07,49,3.00
2010,03,24,07,50,3.10
2010,03,24,07,51,3.10
2010,03,24,07,52,3.10
2010,03,24,07,53,3.10
2010,03,24,07,54,3.10
2010,03,24,07,55,3.10
2010,03,24,07,56,3.10
2010,03,24,07,57,3.10
2010,03,24,07,58,3.10
2010,03,24,07,59,3.10
2010,03,24,08,00,3.10
2010,03,24,08,01,3.10
2010,03,24,08,02,3.10
2010,03,24,08,03,3.10
2010,03,24,08,04,3.10
2010,03,24,08,05,3.10
2010,03,24,08,06,3.10
2010,03,24,08,07,3.20
2010,03,24,08,08,3.30
2010,03,24,08,09,3.40
2010,03,24,08,10,3.50
2010,03,24,08,11,3.60
2010,03,24,08,12,3.80
2010,03,24,08,13,3.90
2010,03,24,08,14,4.00
2010,03,24,08,15,4.10
2010,03,24,08,16,4.20
2010,03,24,08,17,4.20
2010,03,24,08,18,4.30
2010,03,24,08,19,4.30
2010,03,24,08,20,4.40
2010,03,24,08,21,4.40
2010,03,24,08,22,4.40
2010,03,24,08,23,4.50
2010,03,24,08,24,4.50
2010,03,24,08,25,4.50
2010,03,24,08,26,4.60
2010,03,24,08,27,4.60
2010,03,24,08,28,4.60
2010,03,24,08,29,4.60
2010,03,24,08,30,4.60
2010,03,24,08,31,4.60
2010,03,24,08,32,4.70
2010,03,24,08,33,4.70
2010,03,24,08,34,4.70
2010,03,24,08,35,4.70
2010,03,24,08,36,4.70
2010,03,24,08,37,4.70
2010,03,24,08,38,4.70
2010,03,24,08,39,4.70
2010,03,24,08,40,4.80
2010,03,24,08,41,4.80
2010,03,24,08,42,4.80
2010,03,24,08,43,4.80
2010,03,24,08,44,4.80
2010,03,24,08,45,4.80
2010,03,24,08,46,4.80
2010,03,24,08,47,4.90
2010,03,24,08,48,4.90
2010,03,24,08,49,4.90
2010,03,24,08,50,4.90
2010,03,24,08,51,5.00
2010,03,24,08,52,5.00
2010,03,24,08,53,5.00
2010,03,24,08,54,5.10
2010,03,24,08,55,5.10
2010,03,24,08,56,5.10
2010,03,24,08,57,5.10
2010,03,24,08,58,5.20
2010,03,24,08,59,5.20
2010,03,24,09,00,5.20
2010,03,24,09,01,5.30
2010,03,24,09,02,5.30
2010,03,24,09,03,5.30
2010,03,24,09,04,5.40
2010,03,24,09,05,5.40
2010,03,24,09,06,5.50
2010,03,24,09,07,5.50
2010,03,24,09,08,5.60
2010,03,24,09,09,5.70
2010,03,24,09,10,5.70
2010,03,24,09,11,5.80
2010,03,24,09,12,5.80
2010,03,24,09,13,5.90
2010,03,24,09,14,6.00
2010,03,24,09,15,6.00
2010,03,24,09,16,6.10
2010,03,24,09,17,6.20
2010,03,24,09,18,6.20
2010,03,24,09,19,6.30
2010,03,24,09,20,6.30
2010,03,24,09,21,6.40
2010,03,24,09,22,6.50
2010,03,24,09,23,6.50
2010,03,24,09,24,6.60
2010,03,24,09,25,6.70
2010,03,24,09,26,6.70
2010,03,24,09,27,6.80
2010,03,24,09,28,6.90
2010,03,24,09,29,6.90
2010,03,24,09,30,7.00
2010,03,24,09,31,7.00
2010,03,24,09,32,7.10
2010,03,24,09,33,7.20
2010,03,24,09,34,7.20
2010,03,24,09,35,7.30
2010,03,24,09,36,7.30
2010,03,24,09,37,7.40
2010,03,24,09,38,7.40
2010,03,24,09,39,7.50
2010,03,24,09,40,7.50
2010,03,24,09,41,7.60
2010,03,24,09,42,7.60
2010,03,24,09,43,7.70
2010,03,24,09,44,7.70
2010,03,24,09,45,7.70
2010,03,24,09,46,7.70
2010,03,24,09,47,7.80
2010,03,24,09,48,7.80
2010,03,24,09,49,7.80
2010,03,24,09,50,7.90
2010,03,24,09,51,7.90
2010,03,24,09,52,7.90
2010,03,24,09,53,8.00
2010,03,24,09,54,8.00
2010,03,24,09,55,8.10
2010,03,24,09,56,8.10
2010,03,24,09,57,8.10
2010,03,24,09,58,8.20
2010,03,24,09,59,8.20
2010,03,24,10,00,8.20
2010,03,24,10,01,8.30
2010,03,24,10,02,8.30
2010,03,24,10,03,8.30
2010,03,24,10,04,8.40
2010,03,24,10,05,8.40
2010,03,24,10,06,8.50
2010,03,24,10,07,8.50
2010,03,24,10,08,8.50
2010,03,24,10,09,8.60
2010,03,24,10,10,8.60
2010,03,24,10,11,8.70
2010,03,24,10,12,8.70
2010,03,24,10,13,8.80
2010,03,24,10,14,8.80
2010,03,24,10,15,8.90
2010,03,24,10,16,9.00
2010,03,24,10,17,9.00
2010,03,24,10,18,9.10
2010,03,24,10,19,9.20
2010,03,24,10,20,9.30
2010,03,24,10,21,9.40
2010,03,24,10,22,9.40
2010,03,24,10,23,9.50
2010,03,24,10,24,9.50
2010,03,24,10,25,9.50
2010,03,24,10,26,9.60
2010,03,24,10,27,9.60
2010,03,24,10,28,9.60
2010,03,24,10,29,9.60
2010,03,24,10,30,9.60
2010,03,24,10,31,9.60
2010,03,24,10,32,9.60
2010,03,24,10,33,9.60
2010,03,24,10,34,9.60
2010,03,24,10,35,9.60
2010,03,24,10,36,9.70
2010,03,24,10,37,9.70
2010,03,24,10,38,9.70
2010,03,24,10,39,9.80
2010,03,24,10,40,9.80
2010,03,24,10,41,9.90
2010,03,24,10,42,10.00
2010,03,24,10,43,10.00
2010,03,24,10,44,10.00
2010,03,24,10,45,10.10
2010,03,24,10,46,10.10
2010,03,24,10,47,10.20
2010,03,24,10,48,10.30
2010,03,24,10,49,10.30
2010,03,24,10,50,10.40
2010,03,24,10,51,10.40
2010,03,24,10,52,10.50
2010,03,24,10,53,10.50
2010,03,24,10,54,10.60
2010,03,24,10,55,10.70
2010,03,24,10,56,10.70
2010,03,24,10,57,10.80
2010,03,24,10,58,10.90
2010,03,24,10,59,11.10
2010,03,24,11,00,11.20
2010,03,24,11,01,11.30
2010,03,24,11,02,11.40
2010,03,24,11,03,11.50
2010,03,24,11,04,11.50
2010,03,24,11,05,11.50
2010,03,24,11,06,11.50
2010,03,24,11,07,11.60
2010,03,24,11,08,11.60
2010,03,24,11,09,11.70
2010,03,24,11,10,11.70
2010,03,24,11,11,11.70
2010,03,24,11,12,11.60
2010,03,24,11,13,11.50
2010,03,24,11,14,11.40
2010,03,24,11,15,11.20
2010,03,24,11,16,11.20
2010,03,24,11,17,11.00
2010,03,24,11,18,10.90
2010,03,24,11,19,10.80
2010,03,24,11,20,10.70
2010,03,24,11,21,10.70
2010,03,24,11,22,10.60
2010,03,24,11,24,10.60
2010,03,24,11,25,10.60
2010,03,24,11,26,10.70
2010,03,24,11,27,10.70
2010,03,24,11,28,10.70
2010,03,24,11,29,10.60
2010,03,24,11,30,10.60
2010,03,24,11,31,10.60
2010,03,24,11,32,10.60
2010,03,24,11,33,10.60
2010,03,24,11,34,10.60
2010,03,24,11,35,10.60
2010,03,24,11,36,10.70
2010,03,24,11,37,10.70
2010,03,24,11,38,10.80
2010,03,24,11,39,10.90
2010,03,24,11,40,11.00
2010,03,24,11,41,11.20
2010,03,24,11,42,11.30
2010,03,24,11,43,11.50
2010,03,24,11,44,11.60
2010,03,24,11,45,11.70
2010,03,24,11,46,11.80
2010,03,24,11,47,11.80
2010,03,24,11,48,11.90
2010,03,24,11,49,11.90
2010,03,24,11,50,12.00
2010,03,24,11,51,12.10
2010,03,24,11,52,12.10
2010,03,24,11,53,12.10
2010,03,24,11,54,12.20
2010,03,24,11,55,12.20
2010,03,24,11,56,12.20
2010,03,24,11,57,12.20
2010,03,24,11,58,12.10
2010,03,24,11,59,12.10
2010,03,24,12,00,12.10
2010,03,24,12,01,12.10
2010,03,24,12,02,12.10
2010,03,24,12,03,12.10
2010,03,24,12,04,12.00
2010,03,24,12,05,12.00
2010,03,24,12,06,11.90
2010,03,24,12,07,11.90
2010,03,24,12,08,11.90
2010,03,24,12,09,11.80
2010,03,24,12,10,11.80
2010,03,24,12,11,11.90
2010,03,24,12,12,12.00
2010,03,24,12,13,12.00
2010,03,24,12,14,12.20
2010,03,24,12,15,12.30
2010,03,24,12,16,12.40
2010,03,24,12,17,12.50
2010,03,24,12,18,12.60
2010,03,24,12,19,12.60
2010,03,24,12,20,12.60
2010,03,24,12,21,12.60
2010,03,24,12,22,12.50
2010,03,24,12,23,12.30
2010,03,24,12,24,12.30
2010,03,24,12,25,12.30
2010,03,24,12,26,12.40
2010,03,24,12,27,12.40
2010,03,24,12,28,12.40
2010,03,24,12,29,12.30
2010,03,24,12,30,12.20
2010,03,24,12,31,12.20
2010,03,24,12,32,12.10
2010,03,24,12,33,12.10
2010,03,24,12,34,12.10
2010,03,24,12,35,12.10
2010,03,24,12,36,12.10
2010,03,24,12,37,12.20
2010,03,24,12,38,12.20
2010,03,24,12,39,12.20
2010,03,24,12,40,12.10
2010,03,24,12,41,12.10
2010,03,24,12,42,12.10
2010,03,24,12,43,12.00
2010,03,24,12,44,11.90
2010,03,24,12,45,11.90
2010,03,24,12,46,11.80
2010,03,24,12,47,11.80
2010,03,24,12,48,11.80
2010,03,24,12,49,11.80
2010,03,24,12,50,11.80
2010,03,24,12,51,11.80
2010,03,24,12,52,11.80
2010,03,24,12,53,11.80
2010,03,24,12,54,11.80
2010,03,24,12,55,11.90
2010,03,24,12,56,11.90
2010,03,24,12,57,12.00
2010,03,24,12,58,12.10
2010,03,24,12,59,12.10
2010,03,24,13,00,12.10
2010,03,24,13,01,12.20
2010,03,24,13,02,12.20
2010,03,24,13,03,12.20
2010,03,24,13,04,12.30
2010,03,24,13,05,12.30
2010,03,24,13,06,12.30
2010,03,24,13,07,12.40
2010,03,24,13,08,12.40
2010,03,24,13,09,12.40
2010,03,24,13,10,12.40
2010,03,24,13,11,12.40
2010,03,24,13,12,12.30
2010,03,24,13,13,12.30
2010,03,24,13,14,12.30
2010,03,24,13,15,12.40
2010,03,24,13,16,12.40
2010,03,24,13,17,12.50
2010,03,24,13,18,12.60
2010,03,24,13,19,12.60
2010,03,24,13,20,12.60
2010,03,24,13,21,12.60
2010,03,24,13,22,12.60
2010,03,24,13,23,12.60
2010,03,24,13,24,12.60
2010,03,24,13,25,12.60
2010,03,24,13,26,12.60
2010,03,24,13,27,12.60
2010,03,24,13,28,12.60
2010,03,24,13,29,12.60
2010,03,24,13,30,12.60
2010,03,24,13,31,12.60
2010,03,24,13,32,12.60
2010,03,24,13,33,12.60
2010,03,24,13,34,12.60
2010,03,24,13,35,12.60
2010,03,24,13,36,12.60
2010,03,24,13,37,12.60
2010,03,24,13,38,12.70
2010,03,24,13,39,12.70
2010,03,24,13,40,12.70
2010,03,24,13,41,12.80
2010,03,24,13,42,12.80
2010,03,24,13,43,12.80
2010,03,24,13,44,12.80
2010,03,24,13,45,12.80
2010,03,24,13,46,12.80
2010,03,24,13,47,12.80
2010,03,24,13,48,12.80
2010,03,24,13,49,12.70
2010,03,24,13,50,12.70
2010,03,24,13,51,12.70
2010,03,24,13,52,12.70
2010,03,24,13,53,12.70
2010,03,24,13,54,12.70
2010,03,24,13,55,12.70
2010,03,24,13,56,12.70
2010,03,24,13,57,12.60
2010,03,24,13,58,12.70
2010,03,24,13,59,12.70
2010,03,24,14,00,12.80
2010,03,24,14,01,12.90
2010,03,24,14,02,13.00
2010,03,24,14,03,13.00
2010,03,24,14,04,13.00
2010,03,24,14,05,13.00
2010,03,24,14,06,12.90
2010,03,24,14,07,12.90
2010,03,24,14,08,13.10
2010,03,24,14,09,13.20
2010,03,24,14,10,13.30
2010,03,24,14,11,13.30
2010,03,24,14,12,13.40
2010,03,24,14,13,13.50
2010,03,24,14,14,13.50
2010,03,24,14,15,13.50
2010,03,24,14,16,13.50
2010,03,24,14,17,13.50
2010,03,24,14,18,13.40
2010,03,24,14,19,13.40
2010,03,24,14,20,13.40
2010,03,24,14,21,13.40
2010,03,24,14,22,13.40
2010,03,24,14,23,13.40
2010,03,24,14,24,13.40
2010,03,24,14,25,13.40
2010,03,24,14,26,13.40
2010,03,24,14,27,13.40
2010,03,24,14,28,13.50
2010,03,24,14,29,13.60
2010,03,24,14,30,13.70
2010,03,24,14,31,13.70
2010,03,24,14,32,13.70
2010,03,24,14,33,13.70
2010,03,24,14,34,13.70
2010,03,24,14,35,13.80
2010,03,24,14,36,13.80
2010,03,24,14,37,13.90
2010,03,24,14,38,13.90
2010,03,24,14,39,14.00
2010,03,24,14,40,14.10
2010,03,24,14,41,14.10
2010,03,24,14,42,14.10
2010,03,24,14,43,14.10
2010,03,24,14,44,14.10
2010,03,24,14,45,14.20
2010,03,24,14,46,14.20
2010,03,24,14,47,14.20
2010,03,24,14,48,14.20
2010,03,24,14,49,14.10
2010,03,24,14,50,14.10
2010,03,24,14,51,14.10
2010,03,24,14,52,14.10
2010,03,24,14,53,14.10
2010,03,24,14,54,14.10
2010,03,24,14,55,14.00
2010,03,24,14,56,14.00
2010,03,24,14,57,14.00
2010,03,24,14,58,13.90
2010,03,24,14,59,13.90
2010,03,24,15,00,13.90
2010,03,24,15,01,13.80
2010,03,24,15,02,13.80
2010,03,24,15,03,13.70
2010,03,24,15,04,13.70
2010,03,24,15,05,13.80
2010,03,24,15,06,13.80
2010,03,24,15,07,13.80
2010,03,24,15,08,13.80
2010,03,24,15,09,13.80
2010,03,24,15,10,13.90
2010,03,24,15,11,13.90
2010,03,24,15,12,14.00
2010,03,24,15,13,14.00
2010,03,24,15,14,14.10
2010,03,24,15,15,14.10
2010,03,24,15,16,14.20
2010,03,24,15,17,14.20
2010,03,24,15,18,14.20
2010,03,24,15,19,14.20
2010,03,24,15,20,14.10
2010,03,24,15,21,14.10
2010,03,24,15,22,14.10
2010,03,24,15,23,14.10
2010,03,24,15,24,14.10
2010,03,24,15,25,14.10
2010,03,24,15,26,14.00
2010,03,24,15,27,14.00
2010,03,24,15,28,14.00
2010,03,24,15,29,13.90
2010,03,24,15,30,13.90
2010,03,24,15,31,13.90
2010,03,24,15,32,13.90
2010,03,24,15,33,14.00
2010,03,24,15,34,14.00
2010,03,24,15,35,14.10
2010,03,24,15,36,14.20
2010,03,24,15,37,14.20
2010,03,24,15,38,14.20
2010,03,24,15,39,14.20
2010,03,24,15,40,14.30
2010,03,24,15,41,14.30
2010,03,24,15,42,14.20
2010,03,24,15,43,14.30
2010,03,24,15,44,14.20
2010,03,24,15,45,14.20
2010,03,24,15,46,14.20
2010,03,24,15,47,14.10
2010,03,24,15,48,14.10
2010,03,24,15,49,14.10
2010,03,24,15,50,14.10
2010,03,24,15,51,14.20
2010,03,24,15,52,14.30
2010,03,24,15,53,14.30
2010,03,24,15,54,14.40
2010,03,24,15,55,14.50
2010,03,24,15,56,14.50
2010,03,24,15,57,14.60
2010,03,24,15,58,14.60
2010,03,24,15,59,14.70
2010,03,24,16,00,14.70
2010,03,24,16,01,14.70
2010,03,24,16,02,14.70
2010,03,24,16,03,14.70
2010,03,24,16,04,14.80
2010,03,24,16,05,15.00
2010,03,24,16,06,15.00
2010,03,24,16,07,15.00
2010,03,24,16,08,15.20
2010,03,24,16,09,15.20
2010,03,24,16,10,15.40
2010,03,24,16,11,15.40
2010,03,24,16,12,15.30
2010,03,24,16,13,15.40
2010,03,24,16,14,15.40
2010,03,24,16,15,15.40
2010,03,24,16,16,15.40
2010,03,24,16,17,15.50
2010,03,24,16,18,15.60
2010,03,24,16,19,15.60
2010,03,24,16,20,15.60
2010,03,24,16,21,15.50
2010,03,24,16,22,15.50
2010,03,24,16,23,15.50
2010,03,24,16,24,15.40
2010,03,24,16,25,15.30
2010,03,24,16,26,15.30
2010,03,24,16,27,15.30
2010,03,24,16,28,15.30
2010,03,24,16,29,15.30
2010,03,24,16,30,15.30
2010,03,24,16,31,15.20
2010,03,24,16,32,15.20
2010,03,24,16,33,15.20
2010,03,24,16,34,15.20
2010,03,24,16,35,15.20
2010,03,24,16,36,15.20
2010,03,24,16,37,15.10
2010,03,24,16,38,15.00
2010,03,24,16,39,15.00
2010,03,24,16,40,15.00
2010,03,24,16,41,15.00
2010,03,24,16,42,15.00
2010,03,24,16,43,15.00
2010,03,24,16,44,14.90
2010,03,24,16,45,14.90
2010,03,24,16,46,14.80
2010,03,24,16,47,14.70
2010,03,24,16,48,14.60
2010,03,24,16,49,14.60
2010,03,24,16,50,14.50
2010,03,24,16,51,14.40
2010,03,24,16,52,14.40
2010,03,24,16,53,14.40
2010,03,24,16,54,14.40
2010,03,24,16,55,14.40
2010,03,24,16,56,14.40
2010,03,24,16,57,14.40
2010,03,24,16,58,14.40
2010,03,24,16,59,14.40
2010,03,24,17,00,14.40
2010,03,24,17,01,14.40
2010,03,24,17,02,14.30
2010,03,24,17,03,14.30
2010,03,24,17,04,14.30
2010,03,24,17,05,14.30
2010,03,24,17,06,14.20
2010,03,24,17,07,14.00
2010,03,24,17,08,13.90
2010,03,24,17,09,13.80
2010,03,24,17,10,13.70
2010,03,24,17,11,13.50
2010,03,24,17,12,13.40
2010,03,24,17,13,13.40
2010,03,24,17,14,13.30
2010,03,24,17,15,13.30
2010,03,24,17,16,13.20
2010,03,24,17,17,13.20
2010,03,24,17,18,13.10
2010,03,24,17,19,13.10
2010,03,24,17,20,13.10
2010,03,24,17,21,13.10
2010,03,24,17,22,13.10
2010,03,24,17,23,13.20
2010,03,24,17,24,13.20
2010,03,24,17,25,13.20
2010,03,24,17,26,13.20
2010,03,24,17,27,13.20
2010,03,24,17,28,13.20
2010,03,24,17,29,13.20
2010,03,24,17,30,13.20
2010,03,24,17,31,13.20
2010,03,24,17,32,13.20
2010,03,24,17,33,13.20
2010,03,24,17,34,13.20
2010,03,24,17,35,13.20
2010,03,24,17,36,13.30
2010,03,24,17,37,13.30
2010,03,24,17,38,13.40
2010,03,24,17,39,13.40
2010,03,24,17,40,13.50
2010,03,24,17,41,13.50
2010,03,24,17,42,13.60
2010,03,24,17,43,13.70
2010,03,24,17,44,13.70
2010,03,24,17,45,13.70
2010,03,24,17,46,13.70
2010,03,24,17,47,13.70
2010,03,24,17,48,13.70